Temperature
16 16 16 15 15 15 15 15 15 15 15 15 15 15 15 15 15 15 15 15 15 15 15 15 15 15 15 15 15 15 15 15 15 15 15 15 15 15 15 15 15 15 15
16 16 16 15 15 15 15 15 15 15 15 15 15 15 15 15 14 14 14 15 15 15 15 15 15 15 15 15 15 15 15 15 15 15 15 15 15 15 15 15 15 15 15
16 16 15 15 15 15 15 15 15 15 15 15 15 15 15 14 14 14 14 14 14 14 14 15 15 15 15 15 15 15 15 15 15 15 15 15 15 15 15 15 15 15 15
16 15 15 15 15 15 15 15 15 15 15 15 15 15 14 14 14 14 14 14 14 14 14 14 14 14 14 14 14 14 14 14 15 15 15 14 14 15 15 14 14 14 14
16 15 15 15 15 15 15 15 15 15 15 15 15 15 14 14 14 14 14 14 14 14 14 14 14 14 14 14 14 14 14 14 14 14 14 14 14 14 14 14 14 14 14
15 15 15 15 15 15 15 14 14 14 14 14 14 14 14 14 14 14 14 14 14 14 14 14 14 14 14 14 14 14 14 14 14 14 14 14 14 14 14 14 14 14 14
15 15 15 15 15 14 14 14 14 14 14 14 14 14 14 14 14 14 14 13 13 13 13 13 13 13 13 13 13 14 14 14 14 14 14 14 14 14 14 14 14 13 13
15 15 15 15 14 14 14 14 14 14 14 14 14 14 14 14 14 14 13 13 13 13 13 13 13 13 13 13 13 13 13 13 13 13 13 13 13 13 13 13 13 13 13
15 15 14 14 14 14 14 14 14 14 14 14 14 14 14 14 13 13 13 13 13 13 13 13 13 13 13 13 13 13 13 13 13 13 13 13 13 13 13 13 13 13 13
15 14 14 14 14 14 14 14 14 14 14 14 14 14 14 14 13 13 13 13 13 13 13 13 13 13 13 12 13 13 13 13 13 13 13 13 13 13 13 13 13 13 13
14 14 14 14 14 14 14 14 14 14 14 14 14 14 14 14 13 13 13 12 13 12 12 13 13 12 12 12 12 12 12 12 12 12 12 12 12 12 12 12 12 12 12
14 14 14 14 14 14 14 14 14 14 14 13 13 13 13 13 13 13 12 12 12 12 12 12 12 12 12 12 12 12 12 12 12 12 12 12 12 12 12 12 12 12 12
14 14 14 14 14 14 14 14 14 13 13 13 13 13 13 13 13 13 13 12 12 12 12 12 12 12 12 12 12 12 12 12 12 12 12 12 12 12 12 12 12 12 12
14 14 14 14 14 14 14 14 14 13 13 13 13 13 13 13 13 13 12 12 12 12 12 12 12 12 12 12 11 11 11 11 11 11 11 12 12 12 11 11 11 11 11
14 14 14 14 14 14 14 13 13 13 13 13 13 13 13 13 12 12 12 12 12 11 11 11 11 11 11 11 11 11 11 11 11 11 11 11 11 11 11 11 11 11 11
13 14 14 14 13 13 13 13 13 13 13 13 13 13 12 12 12 12 12 12 12 12 11 11 11 11 11 11 11 11 11 11 11 11 11 11 11 11 11 11 11 11 11
13 13 13 13 13 13 13 13 13 13 13 13 12 12 12 12 12 12 12 12 12 11 11 11 11 11 11 11 11 11 11 11 11 11 11 11 11 11 11 11 11 11 11
13 13 13 13 13 13 13 13 13 13 12 12 12 12 12 12 12 12 12 11 11 11 11 11 11 10 11 11 11 10 10 11 11 11 11 11 11 11 10 10 11 10 10
13 13 13 13 13 13 13 12 12 12 12 12 12 12 12 12 12 12 12 11 11 11 11 11 11 10 10 10 10 10 10 10 10 10 10 10 10 10 10 10 10 10 10
13 12 12 12 12 12 12 12 12 12 12 12 12 12 12 12 12 11 11 11 11 11 11 10 10 10 10 10 10 10 10 10 10 10 10 10 10 10 10 10 10 10 10
12 12 12 12 12 12 12 12 12 12 12 12 12 12 11 11 11 11 11 11 11 11 10 10 10 10 10 10 10 10 10 10 10 10 10 10 10 10 10 10 10 10 10
12 12 12 12 12 12 12 12 12 12 11 11 11 11 11 11 11 11 11 11 11 10 10 10 10 10 10 10 10 9 9 9 9 9 9 10 10 10 10 10 10 9 9
11 11 11 11 11 11 12 12 12 12 11 11 11 11 11 11 11 11 11 11 10 10 10 10 10 10 10 9 9 9 9 9 9 9 9 9 9 9 9 9 9 9 9
11 11 11 11 11 11 11 11 11 11 11 11 11 11 11 11 11 11 10 10 10 10 10 10 9 9 9 9 9 9 9 9 9 9 9 9 9 9 9 9 9 9 9
11 11 11 11 11 11 11 11 11 11 11 10 10 10 10 10 10 10 10 10 10 10 10 9 9 9 9 9 9 9 9 9 9 9 9 9 9 9 9 9 9 9 9
10 10 10 10 10 10 10 11 11 11 10 10 10 10 10 10 10 10 10 10 10 10 9 9 9 9 9 9 9 9 9 9 8 8 9 8 8 8 8 9 9 9 9
Wind_Speed
3 3 4 5 6 5 5 4 6 7 6 7 8 9 8 9 10 10 10 14 14 13 12 12 11 11 11 11 11 9 9 9 8 8 8 9 9 9 9 10 10 10 10
4 4 4 5 5 5 5 5 6 5 4 5 7 8 7 7 8 8 9 10 13 13 13 12 12 11 11 11 12 11 10 9 9 8 8 9 9 9 10 10 10 10 10
5 5 4 4 4 5 6 6 6 5 5 5 5 6 6 6 6 7 7 8 8 11 13 13 13 12 11 11 10 10 10 10 9 9 8 8 9 9 9 9 10 10 10
7 6 4 3 5 6 4 4 4 4 4 4 4 4 4 4 5 6 6 7 7 8 10 12 13 12 12 10 10 9 10 10 10 9 8 8 8 8 8 9 9 8 9
7 6 4 3 5 4 3 4 4 4 4 4 3 3 3 3 4 6 6 7 8 8 8 9 11 11 12 12 10 10 10 11 11 10 9 8 8 8 8 8 8 8 8
7 5 3 4 5 4 4 3 4 3 2 2 4 4 3 3 4 5 5 6 7 7 7 7 7 9 11 12 11 10 10 11 11 10 10 9 9 8 8 8 8 8 8
5 4 3 4 4 3 3 3 3 3 2 2 3 3 3 4 5 4 4 5 5 6 6 6 7 7 8 11 12 11 9 10 10 10 10 10 10 9 8 8 8 8 8
5 3 4 3 3 3 3 4 3 2 1 1 1 1 1 3 3 4 3 3 4 5 5 6 7 7 8 8 10 11 9 8 9 10 10 10 10 8 8 7 8 8 8
4 3 3 3 2 2 2 2 2 2 1 2 2 1 1 1 1 2 3 3 3 3 4 5 7 8 8 8 8 9 10 8 9 9 10 10 9 9 9 8 8 8 9
3 3 3 2 2 2 2 1 2 1 1 1 2 2 2 1 1 1 2 2 3 3 3 4 6 6 7 8 8 9 9 9 9 9 9 9 9 9 9 9 8 9 9
2 2 2 2 2 2 2 2 3 2 1 1 1 1 2 2 1 2 0 1 3 3 2 3 4 5 7 8 7 9 10 9 9 8 8 7 8 8 9 8 8 8 8
1 1 1 1 1 2 2 2 2 2 2 2 2 2 1 1 1 1 1 0 1 1 2 2 3 4 5 6 7 8 8 8 8 8 8 7 7 7 7 8 8 7 7
0 1 1 1 1 1 2 1 2 2 1 2 2 1 1 1 1 1 1 1 1 0 1 1 2 3 4 5 6 7 7 6 6 7 7 6 6 6 6 6 6 6 6
1 1 1 1 1 1 2 2 1 1 1 2 1 1 1 1 1 1 1 2 1 1 1 1 1 3 4 5 6 6 5 4 4 5 5 5 5 5 6 5 5 5 5
1 1 1 2 2 2 1 1 1 0 1 1 1 1 1 1 1 1 1 2 2 1 1 0 1 1 3 5 6 5 3 3 3 4 4 4 4 4 4 5 4 5 4
2 1 1 2 2 2 2 2 1 1 1 1 1 1 1 0 1 1 1 0 1 2 1 1 0 0 2 3 4 4 3 3 4 4 4 3 3 3 3 4 4 4 4
2 3 2 2 3 2 2 2 2 1 1 1 1 1 1 1 1 1 1 1 1 1 1 1 1 0 2 2 3 3 3 3 4 3 4 3 3 3 3 3 3 3 3
2 2 2 1 2 3 3 3 2 2 1 1 1 1 1 1 1 0 0 0 0 1 2 1 1 0 0 1 2 2 2 2 3 3 3 3 3 2 2 2 2 2 2
2 1 1 1 2 2 2 2 3 2 2 2 1 1 1 1 1 1 1 0 0 1 1 1 1 1 0 1 1 1 1 2 2 3 3 2 2 2 2 1 1 1 2
2 2 1 1 1 1 2 1 2 1 1 1 2 1 1 2 2 1 1 1 1 1 1 1 1 1 1 1 1 1 0 0 0 2 2 2 2 2 2 2 1 1 1
1 1 1 1 0 0 0 0 1 1 2 1 1 2 2 2 2 2 1 1 1 2 1 1 1 1 1 1 1 1 1 1 1 1 1 2 2 2 2 3 3 3 3
0 0 0 1 0 1 1 1 1 1 2 2 2 2 2 2 3 2 0 1 2 3 3 2 2 2 2 2 2 1 1 1 1 2 1 2 2 1 3 4 4 5 5
0 0 1 1 1 1 1 1 2 2 3 2 2 1 1 1 2 2 1 1 2 2 4 3 3 4 4 3 3 2 2 2 3 3 1 2 2 2 3 5 6 6 6
1 1 1 1 1 1 2 2 3 2 2 1 1 2 2 2 1 1 2 1 2 1 3 3 3 4 3 4 4 4 4 2 2 2 3 2 2 2 3 5 8 9 8
1 1 1 1 1 2 1 1 1 2 2 2 1 1 2 2 1 1 2 2 2 2 4 4 4 4 4 4 4 2 2 1 2 3 2 2 2 2 2 3 7 10 9
2 2 2 2 2 1 1 1 1 1 2 2 1 2 1 1 1 1 2 2 2 3 2 2 2 3 3 4 5 4 4 3 2 2 2 2 2 1 2 2 4 6 7
Wind_Direction
70 68 77 73 75 72 67 61 66 61 55 56 63 68 69 72 81 78 75 70 66 61 59 57 57 57 56 56 59 65 70 71 73 77 76 78 77 76 75 76 76 75 73
74 71 71 66 67 65 70 73 79 67 64 64 62 64 68 71 83 86 86 77 69 65 60 58 55 54 57 60 60 62 64 71 75 78 78 80 81 81 78 79 78 77 77
78 76 76 75 76 69 64 66 68 68 64 65 63 65 68 66 75 78 85 88 79 67 63 61 57 56 57 61 63 65 65 66 71 76 80 84 85 84 84 83 79 78 78
73 70 70 75 78 73 69 68 65 61 61 60 60 61 68 69 73 71 72 78 81 77 73 66 61 57 56 57 62 68 72 70 68 72 77 83 86 88 90 86 84 81 81
69 71 64 65 75 77 72 65 66 67 64 61 64 69 61 58 65 70 65 66 70 76 80 73 63 58 55 52 56 67 71 70 69 69 72 78 86 91 94 90 89 87 87
66 68 67 61 63 67 70 72 74 66 63 60 65 63 64 64 60 63 62 62 66 69 70 75 72 60 56 53 56 62 68 70 71 70 72 76 83 90 92 89 89 87 86
73 72 62 61 56 63 72 79 82 75 67 71 78 56 47 64 69 68 64 59 60 62 61 61 68 66 61 56 54 57 65 69 69 73 74 75 78 81 83 83 84 83 85
71 82 89 82 72 62 57 64 67 58 23 42 73 92 67 37 35 61 66 68 59 57 51 56 69 70 70 63 56 53 57 66 68 72 73 72 69 74 80 82 83 83 84
69 61 71 91 98 94 88 79 72 63 6 355 26 70 101 108 14 29 58 68 72 62 50 47 55 66 73 73 66 57 54 60 67 69 70 69 68 68 74 78 79 81 82
65 64 70 71 87 84 101 103 85 62 50 3 351 14 73 120 111 30 19 42 64 68 63 56 51 53 69 78 78 70 61 57 60 64 67 69 68 67 74 77 76 76 80
69 64 71 64 87 93 101 86 80 67 55 47 18 5 32 33 72 120 81 10 28 39 61 73 70 60 71 83 85 81 74 63 60 60 62 66 69 70 72 75 78 79 81
90 100 109 82 81 105 100 95 98 89 67 44 41 43 53 52 74 95 115 70 38 0 52 76 80 81 78 91 89 94 85 72 64 61 60 59 65 68 71 73 77 81 81
169 225 149 142 139 126 117 104 102 120 105 78 59 50 43 39 90 108 106 100 15 321 66 66 86 101 94 98 99 98 91 83 72 67 64 61 65 71 72 72 72 74 74
193 183 161 147 123 104 109 102 78 89 107 101 84 81 57 39 39 95 125 125 74 347 27 30 47 88 97 101 109 106 93 95 87 84 76 69 71 78 79 74 66 65 66
193 185 173 162 140 125 114 110 125 128 106 115 109 86 82 68 27 48 91 135 147 168 289 329 25 65 103 99 112 109 98 115 108 107 93 81 78 81 79 72 65 59 65
173 181 204 179 160 160 157 139 159 214 165 143 133 120 97 101 55 51 62 9 102 140 192 274 321 279 93 100 112 111 97 106 118 124 117 105 93 87 82 73 66 57 69
183 194 203 188 171 163 157 154 178 215 199 144 150 184 189 157 104 52 43 34 46 105 145 288 324 82 78 89 91 104 100 110 121 128 132 128 120 105 91 84 72 57 70
187 188 196 199 185 170 165 170 192 202 170 149 189 195 201 151 125 131 83 96 134 155 156 204 276 223 151 136 122 115 102 106 123 128 137 145 142 131 110 99 85 75 82
175 190 191 207 200 175 172 203 195 191 185 181 183 200 192 149 162 162 149 63 155 119 129 162 239 263 288 136 108 100 111 121 140 150 156 165 171 165 150 133 121 111 106
182 184 203 190 205 180 182 206 196 172 182 185 177 186 186 167 154 153 159 172 140 120 124 150 200 228 235 213 149 174 322 291 221 167 162 179 194 192 190 195 189 183 174
159 164 189 172 94 147 183 257 209 199 204 208 195 195 198 156 118 121 163 193 184 182 178 185 217 225 231 215 219 217 222 244 268 189 172 185 173 170 188 208 210 214 212
93 91 194 162 159 265 264 255 245 245 230 215 219 209 193 148 121 113 144 226 204 196 195 199 226 217 236 235 220 220 220 222 262 220 174 224 178 197 196 192 201 206 212
151 305 269 222 189 260 253 240 255 259 243 229 212 191 197 163 141 140 206 258 272 237 206 209 215 225 222 219 203 213 237 242 239 216 170 243 211 212 201 208 207 208 209
178 195 219 221 198 273 279 240 250 244 239 239 208 183 173 150 139 140 181 210 250 261 247 236 227 231 224 208 205 208 217 239 269 215 167 216 226 224 219 199 207 205 207
205 214 190 206 210 252 297 306 247 245 235 240 225 152 144 149 197 166 174 208 234 271 278 266 266 253 251 232 217 188 191 195 260 248 200 192 222 233 228 215 211 210 207
208 214 203 201 204 195 223 314 251 229 240 253 236 210 203 188 247 221 202 206 229 256 256 269 273 267 240 221 223 202 188 197 233 247 218 185 212 206 257 231 194 196 207
Height
1524 1524 1524 1525 1525 1525 1526 1526 1526 1527 1527 1527 1528 1527 1527 1527 1527 1527 1526 1526 1526 1525 1525 1525 1524 1524 1523 1523 1522 1522 1522 1522 1522 1523 1523 1523 1524 1525 1525 1526 1527 1527 1527
1526 1526 1526 1527 1527 1527 1528 1528 1528 1528 1529 1529 1529 1529 1529 1529 1529 1528 1528 1527 1527 1526 1526 1525 1525 1524 1524 1523 1522 1522 1522 1522 1522 1523 1523 1524 1524 1525 1526 1526 1527 1527 1528
1527 1527 1528 1528 1529 1529 1530 1530 1530 1530 1530 1530 1530 1530 1530 1530 1530 1530 1530 1529 1528 1527 1527 1526 1526 1525 1525 1524 1524 1524 1523 1523 1523 1523 1523 1523 1524 1525 1526 1526 1527 1528 1528
1529 1529 1529 1530 1530 1531 1531 1531 1531 1531 1531 1532 1532 1532 1532 1532 1532 1531 1531 1530 1530 1529 1528 1528 1527 1526 1526 1525 1525 1525 1524 1523 1523 1523 1523 1523 1524 1525 1526 1526 1527 1528 1529
1530 1530 1531 1531 1532 1532 1532 1532 1532 1532 1533 1533 1533 1533 1533 1533 1533 1533 1532 1532 1531 1530 1530 1529 1528 1528 1527 1526 1526 1526 1525 1525 1524 1523 1523 1523 1523 1524 1525 1527 1527 1528 1529
1531 1531 1531 1532 1532 1533 1533 1533 1533 1534 1534 1534 1534 1534 1534 1534 1534 1534 1533 1533 1533 1532 1531 1530 1529 1529 1528 1527 1527 1526 1526 1526 1525 1524 1524 1524 1524 1524 1526 1527 1528 1528 1529
1532 1532 1532 1533 1533 1533 1534 1534 1534 1534 1535 1535 1535 1535 1535 1535 1535 1535 1535 1534 1534 1533 1532 1531 1531 1530 1529 1529 1528 1528 1527 1527 1526 1526 1525 1525 1525 1525 1527 1528 1528 1529 1529
1532 1532 1533 1533 1533 1534 1534 1534 1535 1535 1535 1535 1536 1535 1536 1537 1536 1537 1536 1535 1535 1534 1533 1532 1532 1531 1530 1529 1529 1528 1528 1527 1527 1527 1526 1526 1526 1527 1527 1528 1528 1529 1529
1532 1532 1533 1533 1534 1534 1534 1534 1535 1535 1535 1536 1536 1536 1536 1536 1537 1538 1537 1536 1536 1535 1534 1533 1533 1532 1531 1530 1530 1529 1528 1528 1527 1527 1527 1527 1527 1527 1528 1528 1528 1529 1529
1532 1532 1533 1533 1533 1534 1534 1534 1535 1535 1535 1535 1536 1536 1536 1536 1537 1537 1538 1537 1536 1535 1535 1534 1533 1533 1532 1531 1531 1530 1529 1528 1528 1528 1528 1528 1528 1528 1528 1528 1528 1529 1529
1532 1532 1532 1533 1533 1533 1534 1534 1534 1535 1535 1535 1535 1536 1536 1536 1537 1537 1537 1537 1537 1536 1535 1535 1534 1533 1532 1532 1531 1531 1530 1529 1529 1529 1529 1529 1529 1529 1529 1529 1529 1529 1530
1531 1531 1531 1532 1532 1532 1533 1533 1534 1534 1534 1535 1535 1535 1536 1536 1536 1536 1536 1536 1536 1536 1536 1535 1534 1533 1533 1532 1532 1531 1531 1531 1530 1530 1530 1530 1530 1529 1529 1530 1530 1530 1530
1529 1530 1530 1531 1531 1532 1532 1533 1533 1534 1534 1534 1535 1535 1535 1536 1536 1536 1536 1536 1536 1536 1536 1536 1535 1534 1533 1532 1532 1532 1531 1531 1531 1530 1530 1530 1530 1530 1530 1530 1530 1530 1531
1528 1529 1529 1529 1530 1531 1531 1532 1532 1533 1533 1534 1534 1535 1535 1535 1535 1535 1535 1535 1535 1536 1536 1536 1535 1534 1534 1533 1532 1532 1531 1531 1531 1531 1530 1530 1530 1530 1530 1530 1530 1530 1530
1527 1527 1528 1528 1529 1529 1530 1530 1531 1532 1533 1533 1533 1534 1534 1534 1534 1534 1534 1535 1535 1534 1535 1535 1535 1534 1534 1533 1532 1532 1531 1531 1531 1530 1530 1530 1530 1530 1530 1530 1530 1530 1530
1525 1525 1526 1526 1527 1527 1528 1529 1530 1531 1531 1532 1532 1533 1533 1533 1533 1533 1533 1533 1534 1534 1534 1534 1534 1534 1533 1532 1532 1531 1531 1530 1530 1530 1530 1530 1529 1529 1529 1529 1529 1529 1529
1523 1523 1524 1524 1525 1526 1526 1527 1528 1529 1530 1530 1531 1531 1532 1532 1532 1532 1532 1532 1532 1533 1532 1532 1533 1533 1532 1532 1531 1530 1530 1529 1529 1529 1529 1529 1529 1529 1528 1528 1528 1528 1528
1521 1521 1522 1522 1522 1523 1524 1525 1526 1527 1528 1528 1529 1529 1530 1530 1530 1530 1531 1531 1531 1531 1531 1531 1531 1531 1531 1531 1530 1529 1529 1528 1528 1528 1528 1528 1528 1528 1528 1527 1527 1527 1527
1518 1519 1519 1520 1520 1521 1522 1523 1524 1525 1526 1527 1527 1527 1528 1528 1528 1528 1529 1529 1529 1529 1529 1529 1529 1529 1529 1529 1529 1528 1528 1527 1527 1527 1527 1527 1527 1526 1526 1526 1526 1526 1526
1516 1516 1517 1517 1518 1519 1520 1521 1522 1523 1524 1524 1525 1525 1525 1526 1526 1526 1526 1526 1527 1527 1527 1527 1527 1527 1527 1527 1527 1527 1526 1526 1526 1526 1526 1526 1525 1525 1525 1525 1525 1525 1524
1513 1514 1514 1515 1515 1516 1517 1518 1520 1521 1521 1522 1522 1523 1523 1524 1524 1524 1524 1524 1524 1524 1524 1524 1525 1525 1525 1525 1525 1525 1525 1524 1524 1525 1524 1524 1524 1524 1523 1523 1523 1523 1523
1511 1511 1512 1512 1513 1513 1515 1516 1517 1518 1519 1519 1520 1520 1521 1521 1521 1521 1521 1521 1522 1522 1522 1522 1522 1522 1522 1522 1523 1523 1523 1522 1522 1523 1522 1522 1522 1522 1522 1522 1521 1521 1521
1508 1508 1509 1509 1510 1511 1512 1513 1514 1515 1515 1516 1517 1517 1518 1518 1518 1518 1518 1519 1519 1519 1520 1520 1519 1519 1520 1520 1520 1520 1520 1520 1520 1520 1520 1519 1520 1519 1519 1519 1519 1519 1519
1505 1506 1506 1506 1507 1508 1508 1509 1510 1511 1512 1512 1513 1514 1514 1515 1515 1515 1515 1515 1515 1516 1516 1516 1516 1517 1517 1517 1517 1518 1518 1518 1518 1518 1518 1517 1517 1517 1517 1517 1517 1517 1517
1502 1503 1503 1503 1504 1504 1505 1506 1507 1507 1508 1509 1510 1510 1511 1511 1511 1512 1512 1511 1511 1511 1512 1513 1513 1513 1514 1514 1514 1515 1515 1515 1514 1514 1514 1514 1514 1514 1514 1513 1514 1514 1514
1499 1500 1500 1500 1501 1501 1502 1502 1503 1503 1504 1505 1506 1507 1507 1508 1508 1508 1508 1508 1508 1508 1508 1508 1509 1509 1510 1510 1510 1511 1511 1511 1511 1511 1511 1511 1511 1511 1510 1510 1510 1510 1510